Regional Weather Roundup
Issued by NWS Little Rock, AR

Home | Current Version | Previous Version | Text Only | Print | Product List | Glossary Off
Versions: 1 2 3 4 5 6 7 8 9 10 11 12 13 14 15 16 17 18 19 20 21 22 23 24 25 26 27 28 29 30 31 32 33 34 35 36 37 38 39 40 41 42 43 44 45 46 47 48 49 50

000
ASUS44 KLZK 281705
RWRLZK

WEATHER ROUNDUP FOR ARKANSAS
NATIONAL WEATHER SERVICE LITTLE ROCK AR
1200 PM CDT FRI AUG 28 2015

NOTE: "FAIR" INDICATES FEW OR NO CLOUDS BELOW 12,000 FEET WITH NO
SIGNIFICANT WEATHER AND/OR OBSTRUCTIONS TO VISIBILITY.

ARZ001-003-010-029-281800-
NORTHWEST ARKANSAS

CITY           SKY/WX    TMP DP  RH WIND       PRES   REMARKS
FAYETTEVILLE   PTSUNNY   76  63  64 S13       30.09S
FORT SMITH     MOSUNNY   79  61  53 SE7       30.07F
BENTONVILLE    PTSUNNY   75  61  60 S9        30.09S
ROGERS         PTSUNNY   76  64  66 S7        30.09S
SILOAM SPGS    CLOUDY    75  61  60 S9        30.07R
HIGHFILL       CLOUDY    76  65  68 S9        30.08S
SPRINGDALE     MOSUNNY   79  63  57 S8        30.10F
$$

ARZ004-005-016-281800-
NORTH CENTRAL ARKANSAS

CITY           SKY/WX    TMP DP  RH WIND       PRES   REMARKS
BATESVILLE     SUNNY     81  59  47 E5        30.10F
FLIPPIN        SUNNY     79  57  47 SE8       30.08F
MTN HOME       SUNNY     77  59  53 S9        30.10F
$$

ARZ040-041-281800-
WEST CENTRAL ARKANSAS

CITY           SKY/WX    TMP DP  RH WIND       PRES   REMARKS
MENA           MOSUNNY   81  63  54 CALM      30.10F
MOUNT IDA      SUNNY     81  61  50 VRB3      30.07F
$$

ARZ009-017-025-026-028-281800-
NORTHEAST ARKANSAS

CITY           SKY/WX    TMP DP  RH WIND       PRES   REMARKS
JONESBORO      SUNNY     80  63  55 SE5       30.09F
NEWPORT        SUNNY     83  60  45 CALM      30.11F
WALNUT RIDGE   SUNNY     81  61  50 S6        30.10F
BLYTHEVILLE    SUNNY     84  64  50 E6        30.10F HX  85
$$

ARZ022-023-033-042-044-281800-
CENTRAL ARKANSAS

CITY           SKY/WX    TMP DP  RH WIND       PRES   REMARKS
LITTLE ROCK    MOSUNNY   82  57  42 CALM      30.09F
N LITTLE ROCK  MOSUNNY   81  60  48 E8        30.09F
JACKSONVILLE   SUNNY     82  57  43 E2        30.08F
SEARCY         SUNNY     82  61  48 S5        30.11F
HOT SPRINGS    SUNNY     80  59  48 SW6       30.10S
RUSSELLVILLE   SUNNY     79  61  53 VRB5      30.09F
$$

ARZ036-281800-
EAST ARKANSAS

CITY           SKY/WX    TMP DP  RH WIND       PRES   REMARKS
WEST MEMPHIS   SUNNY     84  64  50 SE5       30.07F HX  85
$$

ARZ050-053-066-070-073-281800-
SOUTHWEST ARKANSAS

CITY           SKY/WX    TMP DP  RH WIND       PRES   REMARKS
ARKADELPHIA    FAIR      84  60  44 VRB5      30.09S
CAMDEN         SUNNY     82  57  42 CALM      30.08S
TEXARKANA      SUNNY     82  59  45 VRB6      30.07S
EL DORADO      SUNNY     84  58  40 SE8       30.08S
DE QUEEN       SUNNY     81  61  50 S6        30.07S
$$

ARZ056-057-069-281800-
SOUTHEAST ARKANSAS

CITY           SKY/WX    TMP DP  RH WIND       PRES   REMARKS
PINE BLUFF     SUNNY     80  58  46 VRB3      30.09S
STUTTGART      SUNNY     81  57  44 N5        30.09S
MONTICELLO     SUNNY     83  60  45 E5        30.08S

$$





USA.gov is the U.S. government's official web portal to all federal, state and local government web resources and services.